Terminal Aerodrome Forecast
Issued by NWS Atlanta, GA

Home | Current Version | Previous Version | Text Only | Print | Product List | Glossary On
Versions: 1 2 3 4 5 6 7 8 9 10 11 12 13 14 15 16 17 18 19 20 21 22 23 24 25 26 27 28 29 30 31 32 33 34 35 36 37 38 39
000
FTAK31 PAJN 261700
TAFAHN
TAF
PAHN 261738Z 2618/2718 30015G23KT P6SM SCT060
     FM262100 31018G28KT P6SM SCT100
     FM270300 31019G34KT P6SM SCT050
     FM271200 31012G22KT P6SM SCT050
      AMD LTD TO CLD VIS AND WIND=

USA.gov is the U.S. government's official web portal to all federal, state and local government web resources and services.